User: anonymous   Login
Location: Unspecified
(0.0000°N, 0.0000°E)
Time: 12:40:04
(UTC+00:00)
Language:

Intelsat V F4 - Orbit

View from above orbital plane
View from above orbital plane
View from above satellite
View from above satellite

Ground track
Ground track

The orbit data is extracted from the following two-line orbital elements,

1 13083U 82017A   18201.04098736  .00000040  00000-0  00000+0 0  9995
2 13083  14.8461 351.2218 0023220 182.0417   5.0871  0.99225077113125
Epoch (UTC): 20 July 2018 00:59:01
Eccentricity: 0.0023220
inclination: 14.8461°
perigee height: 35983 km
apogee height: 36181 km
right ascension of ascending node: 351.2218°
argument of perigee: 182.0417°
revolutions per day: 0.99225077
mean anomaly at epoch: 5.0871°
orbit number at epoch: 11312

The dashed part of the orbit path shows where the satellite is in the earth's shadow,  

DLR